944  
FPUS82 KCHS 261527  
OPUCHS  
 
TEST   
..KCHS/KSAV GATEWAY OBSERVATIONS
 
TEST  
NATIONAL WEATHER SERVICE CHARLESTON SC  
1100 AM EDT THU APR 26 2018  
 
NOTE: "FAIR" INDICATES FEW OR NO CLOUDS BELOW 12,000 FEET WITH NO  
SIGNIFICANT WEATHER AND/OR OBSTRUCTIONS TO VISIBILITY.  
 
SCZ050-WAZ558-NCZ071-TXZ119-213-PAZ071-DCZ001-FLZ074-172-MI076-  
NYZ176-178-MAZ016-IL014-TNZ027-NJZ106-GAZ044-MD014-261600-  
   
..GATEWAY OBSERVATIONS FOR CHARLESTON INTERNATIONAL
 
 
 
CITY SKY/WX TMP DP RH WIND PRES REMARKS  
CHAS AIRPORT FAIR 74 57 55 S12 29.88R  
SEATTLE SUNNY 59 43 55 N7 30.03  
CHARLOTTE PTSUNNY 65 50 58 E8 29.91  
DALLAS DFW MOSUNNY 56 45 66 N8 30.04  
DALLAS LOVE MOSUNNY 57 46 66 N7 30.06  
PHILLADELPHIA FAIR 57 39 51 W9 29.82R  
WASH NATIONAL PTSUNNY 61 38 42 W13 29.88  
BALTIMORE PTSUNNY 59 41 51 W14 29.86R  
MIAMI FAIR 76 62 62 VRB5 29.98  
DETROIT FAIR 52 35 52 VRB3 29.95  
NEWARK FAIR 61 42 49 NW16 29.75  
LAGUARDIA FAIR 59 40 49 W25 29.74  
J F K FAIR 60 42 51 W16G25 29.74R  
BOSTON LOGAN PTSUNNY 63 55 75 W12 29.58S  
FT. LAUDERDALE FAIR 77 64 64 W6 29.97R  
CHICAGO O'HARE PTSUNNY 54 30 40 CALM 29.95  
CHICAGO MIDWAY FAIR 53 29 39 CALM 29.97  
HOUSTON BUSH FAIR 63 47 55 N12 30.05S  
HOUSTON HOBBY FAIR 62 47 57 N13 30.05  
NASHVILLE LGT RAIN 59 55 87 SE6 29.89 FOG  
ATLANTA PTSUNNY 58 53 84 NW10 29.91  
 

 
 
GAZ044-118-TXZ119-213-NCZ071-DCZ001-MDZ014-506-PAZ021-071-NJZ106-  
NYZ176-178-MAZ106-OHZ011-021-055-MIZ076-KYZ091-ILZ014-INZ047-  
MNZ060-ONZ431-261600-  
   
..GATEWAY OBSERVATIONS FOR SAVANNAH INTERNATIONAL
 
 
 
CITY SKY/WX TMP DP RH WIND PRES REMARKS  
SAVANNAH ARPT CLOUDY 72 54 53 SW9 29.89S  
ATLANTA PTSUNNY 58 53 84 NW10 29.91  
CHARLOTTE PTSUNNY 65 50 58 E8 29.91  
DALLAS DFW MOSUNNY 56 45 66 N8 30.04  
HOUSTON BUSH FAIR 63 47 55 N12 30.05S  
WASH NATIONAL PTSUNNY 61 38 42 W13 29.88  
WASH DULLES FAIR 59 39 47 W14G20 29.89  
BALTIMORE PTSUNNY 59 41 51 W14 29.86R  
PHILADELPHIA FAIR 57 39 51 W9 29.82R  
NEWARK FAIR 61 42 49 NW16 29.75  
LAGUARDIA FAIR 59 40 49 W25 29.74  
J F K FAIR 60 42 51 W16G25 29.74R  
BOSTON PTSUNNY 63 55 75 W12 29.58S  
PITTSBURG FAIR 49 35 58 W5 29.94  
AKRON FAIR 48 35 60 CALM 29.95  
CLEVELAND FAIR 50 37 61 CALM 29.98  
CINCINNATI FAIR 56 39 53 NE5 29.93  
COLUMBUS FAIR 55 43 66 SE6 29.95S  
DETROIT FAIR 52 35 52 VRB3 29.95  
CHICAGO O'HARE PTSUNNY 54 30 40 CALM 29.95  
MINNEAPOLIS PTSUNNY 56 33 42 W14G23 29.85  
INDIANAPOLIS FAIR 50 34 54 CALM 29.96S  
TORONTO CANADA MOSUNNY 48 36 61 NW13 29.85R  
 

 
 
 
CLICK HERE TO GO TO PREVIOUS BULLETINS.

The Nexlab SC Page
The Nexlab GA Page Main Text Page